Torna al catalogo

STARLINK-31583

AttivoComunicazioniVLEO
NORAD 59369·PAYLOAD·🇺🇸 United States

Lanciato Mar 31, 2024 da Cape Canaveral Space Force Station

Loading…

Prossimi Passaggi (prossime 24 ore)

TLE

AggiornatoSource: CelesTrak SupGP

Epoca: Sep 15, 2026, 01:58 UTC

1 59369C 24060X   26258.08243056 -.00007489  00000+0 -27125-3 0  2582
2 59369  43.0014 259.2804 0001500 267.3488 141.3594 15.27581467    14

Traccia STARLINK-31583 in tempo reale con AllMySat

Download on the App Store